{"data":{"norad_id":48582,"intl_designator":"2021-041AF","name":"STARLINK-2236","alt_names":[],"object_type":"PAYLOAD","status":"ACTIVE","operator":null,"country":"US","launch_date":"2021-05-15","launch_site_code":"AFETR","launch_vehicle":null,"mission":null,"orbit_class":"UNKNOWN","rcs_meters":null,"size_class":null,"mass_kg":null,"dimensions":null,"purposes":["comms"],"wikipedia_slug":null,"has_3d_model":false,"image_url":null,"decayed_at":null,"tle_current":{"epoch":"2026-09-20T00:00:02.999808Z","epoch_age_seconds":80529,"freshness":"FRESH","line1":"1 48582U 21041AF  26263.00003472  .00202982  00000+0  96741-3 0  9992","line2":"2 48582  53.0459 259.7703 0009855  57.7335 176.3442 15.81697782  5999","mean_motion":15.81697782,"eccentricity":0.0009855,"inclination_deg":53.0459,"raan_deg":259.7703,"arg_perigee_deg":57.7335,"mean_anomaly_deg":176.3442,"bstar":0.00096741,"rev_number":599,"period_min":91.041412360026,"perigee_km":319.03258138978,"apogee_km":332.24572418692,"semimajor_km":6703.7761527884,"source":"CELESTRAK","updated_at":"2026-09-20T09:00:39.136992Z"}}}